Theta_e
323 322 324 324 320 316 322 325 322 325 325 324 324 326 330 333 334 327 336 337 336 327 327 323 316 316 332 328 316 319 312 312 312 319 332 315 314 313 315 326 331 331 332 333 330 328 327 328 328
321 321 324 323 318 320 319 321 324 324 324 326 325 327 330 334 336 337 337 337 334 328 325 321 316 317 331 327 320 318 313 310 310 315 320 313 311 313 315 318 326 331 331 332 327 327 327 326 326
319 320 323 317 317 320 321 322 323 324 324 325 324 328 332 335 337 337 337 335 329 328 325 319 317 316 329 323 323 317 316 314 311 309 310 309 310 310 310 310 310 313 317 319 321 323 324 326 325
317 319 320 319 321 319 319 321 322 322 323 325 327 328 333 335 335 335 335 333 328 327 325 318 318 317 317 321 326 322 321 319 317 314 312 310 309 309 309 309 309 310 310 310 311 313 315 317 323
317 319 318 319 319 318 318 322 323 321 322 323 325 327 335 334 335 333 333 329 328 326 325 320 319 318 318 319 329 329 323 321 319 317 315 314 312 310 309 308 308 309 310 310 310 311 312 315 320
316 317 317 319 317 316 321 323 322 320 321 325 330 331 334 335 335 333 332 331 327 326 326 321 319 319 319 317 321 331 326 323 321 319 318 316 315 315 311 309 308 308 309 311 312 313 314 317 320
316 314 317 317 318 317 317 322 320 319 320 321 327 329 334 335 334 332 332 331 328 326 326 323 321 320 320 319 318 324 328 325 323 322 321 320 317 315 314 311 309 309 309 311 313 315 318 320 318
318 316 318 316 316 317 317 320 320 321 319 320 326 330 333 334 333 333 333 332 332 328 327 325 322 322 321 321 320 320 323 325 324 323 322 321 321 319 316 313 311 309 309 311 313 314 315 317 318
317 316 317 317 316 317 318 317 317 319 319 319 322 325 324 333 333 333 334 335 335 332 327 327 324 323 322 322 322 321 321 323 324 323 323 322 322 321 320 317 313 311 310 311 314 315 315 315 318
314 315 318 316 316 315 317 318 317 317 318 324 325 325 324 333 333 334 335 335 334 332 328 327 326 324 324 323 323 323 323 323 323 324 323 322 322 322 321 319 317 313 312 311 314 316 317 315 315
315 316 315 316 316 317 318 316 316 316 314 319 325 326 328 333 334 335 335 333 331 331 330 328 328 326 325 325 324 324 324 324 324 324 324 322 323 323 323 321 318 316 313 312 314 316 317 317 316
315 315 315 316 316 316 315 317 315 316 316 317 318 321 329 330 333 335 335 334 333 332 331 331 330 328 327 326 325 325 325 325 325 325 324 324 324 324 324 322 319 317 315 313 314 317 316 317 318
315 315 316 316 316 318 316 316 315 315 317 317 320 327 328 329 328 332 334 334 334 332 331 331 331 330 327 327 327 327 326 326 326 326 326 325 325 325 325 324 322 321 318 317 317 317 317 318 318
315 315 314 315 315 316 315 315 316 316 317 317 321 325 324 325 325 330 333 334 333 332 331 332 332 331 329 326 326 327 327 327 327 327 327 327 326 326 326 325 325 323 322 319 319 318 318 318 318
314 313 312 312 314 314 315 314 314 316 317 317 320 322 323 321 324 323 327 332 332 331 332 332 331 332 332 331 327 327 326 326 326 326 327 327 328 327 327 326 326 325 324 322 320 319 318 319 319
312 310 311 311 312 314 313 315 313 314 316 318 319 322 322 321 321 321 324 327 332 334 333 333 333 332 333 333 331 333 332 334 334 332 332 331 327 328 327 327 327 326 325 324 322 320 320 319 319
310 310 310 312 312 311 312 314 314 314 315 316 319 320 321 320 322 321 323 327 331 332 331 333 333 331 332 333 331 329 334 334 333 332 331 331 331 329 327 327 327 327 327 326 324 322 321 320 320
311 311 310 311 310 311 311 311 310 313 313 315 315 314 315 317 317 318 321 326 330 330 329 330 331 330 332 333 331 325 333 334 333 331 330 330 331 330 329 329 327 327 327 327 326 325 324 323 322
309 311 311 311 309 311 309 310 310 311 310 311 312 313 313 313 314 315 317 324 327 330 329 329 330 329 331 332 331 330 324 331 334 333 331 328 327 326 330 327 327 327 326 326 324 324 324 324 324
311 310 310 310 311 310 310 310 309 310 310 311 313 312 313 313 313 313 315 318 324 328 330 329 330 329 329 329 328 328 328 323 332 332 329 328 327 327 327 327 326 326 326 325 325 324 325 326 326
310 309 309 311 310 309 309 307 308 309 311 312 313 313 313 313 314 313 313 313 318 326 330 329 329 330 330 330 330 331 331 329 326 328 327 328 328 328 326 326 326 326 326 326 326 325 324 327 325
311 308 309 309 308 309 307 307 304 304 306 308 312 313 314 313 314 313 313 313 314 319 325 327 329 331 331 332 332 332 330 328 325 323 324 327 327 327 326 326 326 325 325 325 327 328 326 324 324
311 309 309 308 308 307 308 305 304 306 307 305 308 312 313 313 313 314 313 313 314 315 316 320 324 326 327 328 331 331 332 331 330 328 326 326 326 325 325 326 325 325 324 323 324 327 323 326 325
308 308 308 306 305 308 306 305 305 305 308 309 308 310 312 312 313 312 312 312 312 312 312 312 311 311 313 318 323 326 330 331 328 327 325 324 325 325 325 324 324 324 323 323 323 323 325 323 322
309 307 308 308 308 307 305 304 306 305 305 306 308 309 310 311 312 312 312 312 312 312 312 311 311 311 310 310 312 318 323 326 326 325 324 323 324 324 324 323 323 322 322 322 322 322 322 322 322
308 308 309 309 308 306 305 307 307 306 307 309 309 310 311 312 312 312 312 311 311 311 311 312 312 312 310 309 309 310 314 320 323 325 325 323 323 323 323 322 322 322 321 322 322 322 324 323 320
309 309 308 308 301 308 306 305 306 305 307 308 309 311 311 311 311 311 311 311 311 311 312 314 314 314 311 310 310 309 311 317 326 323 324 323 321 322 322 321 324 322 323 322 322 320 322 320 319
308 307 310 308 309 307 305 306 306 307 307 308 308 310 311 311 311 311 311 311 311 311 312 313 314 314 314 312 312 313 315 320 326 321 320 320 320 320 320 321 320 320 320 321 320 319 318 315 310
307 307 307 309 308 308 307 306 304 306 307 306 309 311 311 311 311 311 311 311 311 311 312 312 313 314 314 314 314 314 315 318 323 320 318 318 318 318 318 319 319 319 319 317 313 310 308 306 304
307 307 307 309 308 307 307 306 305 305 308 307 307 311 311 311 311 311 311 311 311 311 311 311 312 313 314 315 315 315 316 320 320 317 318 317 318 317 318 315 312 309 308 307 304 302 299 298 297
Wind_Speed
2 4 5 4 4 5 4 2 4 3 4 6 14 13 8 6 2 3 19 16 16 17 13 12 11 13 13 11 12 13 13 14 15 16 16 15 16 15 16 17 18 16 15 16 16 17 15 15 14
3 3 3 3 4 2 4 2 3 4 16 19 15 11 8 2 6 17 23 14 17 17 14 12 13 14 13 12 13 14 14 14 15 16 16 15 15 16 17 16 18 17 15 15 15 15 13 12 13
2 2 3 4 3 2 3 3 5 8 12 9 6 10 4 6 14 26 16 18 20 17 14 13 13 13 13 12 14 16 16 16 15 15 14 15 15 15 15 15 15 14 14 14 13 13 12 10 10
1 1 4 4 3 4 5 7 10 8 10 6 16 7 7 6 17 16 19 18 20 17 14 14 14 13 13 12 13 16 16 15 15 15 14 14 14 13 14 13 13 14 14 13 13 12 11 10 10
0 2 3 3 4 4 3 9 14 5 8 10 7 3 4 18 8 17 20 22 22 19 16 14 14 13 13 13 13 14 13 14 13 13 13 12 12 12 12 13 12 12 12 13 12 12 12 11 9
1 1 3 3 4 4 4 11 14 6 9 11 10 8 7 11 14 20 20 21 21 20 18 15 14 13 13 12 12 12 11 11 12 12 12 11 11 11 12 11 11 11 12 13 13 13 13 10 8
3 3 4 4 3 1 5 13 12 12 11 5 20 5 9 16 18 20 18 20 21 18 18 16 15 14 13 12 12 11 10 10 10 10 10 10 9 9 11 10 10 10 10 12 13 13 11 7 6
3 3 4 3 4 5 6 5 9 20 6 13 12 7 8 23 26 21 18 18 18 18 17 16 15 14 13 13 11 10 9 9 8 8 8 8 8 7 8 8 8 9 10 10 11 11 9 6 4
4 3 3 5 6 5 8 5 6 9 13 7 8 11 8 29 29 24 21 19 18 18 19 17 16 15 14 13 12 10 9 8 7 6 5 5 6 6 6 6 5 6 8 8 9 9 7 6 5
4 3 7 5 4 5 8 11 12 7 11 5 10 10 22 32 33 29 27 25 22 20 21 19 18 16 15 14 12 11 9 7 5 4 3 4 4 5 5 5 4 4 5 5 5 5 4 4 5
9 5 3 0 7 14 15 11 5 18 2 12 22 24 27 32 34 32 28 25 23 20 20 22 20 18 17 15 14 12 10 9 7 6 3 3 4 3 4 4 3 3 3 4 4 3 2 3 3
6 13 6 5 6 7 13 15 7 14 7 13 16 21 27 29 38 34 31 28 24 22 19 20 20 21 19 18 16 14 12 11 9 8 6 3 3 2 2 3 2 1 2 2 3 2 1 2 2
4 4 4 7 5 7 10 8 7 11 9 14 19 25 25 26 31 34 31 27 24 22 20 20 19 20 22 20 18 17 15 13 11 11 9 7 4 2 2 1 0 0 1 2 2 2 2 1 1
7 6 5 4 6 9 7 5 8 11 11 18 26 27 24 24 26 30 32 31 29 24 22 20 21 20 17 20 21 19 18 16 15 14 12 10 7 6 5 5 3 3 2 3 3 3 3 3 4
3 5 3 5 6 4 11 2 6 14 16 23 28 27 25 22 25 28 30 33 31 25 20 22 21 21 20 17 20 19 18 17 16 14 14 13 12 11 10 9 7 6 5 5 4 4 5 5 5
5 4 5 4 7 4 2 9 8 15 23 22 27 26 25 23 25 24 25 26 27 25 24 22 21 21 21 20 20 23 21 20 18 17 16 15 13 14 14 12 10 9 9 8 7 7 7 6 7
4 5 5 3 9 1 2 5 8 20 26 25 26 27 26 24 24 23 24 24 25 27 25 27 24 23 22 20 21 24 24 23 22 20 20 18 17 15 15 15 13 13 12 12 11 11 11 11 10
5 4 2 6 6 4 3 7 3 20 26 28 27 26 26 26 28 24 23 24 28 25 24 26 25 22 21 20 21 19 25 27 26 25 24 21 19 18 18 17 16 17 16 15 14 14 14 14 16
4 5 6 4 4 6 9 8 8 12 17 20 24 25 26 28 24 24 24 27 28 30 26 24 25 23 23 25 24 24 23 26 27 27 26 25 24 22 20 18 18 18 18 16 15 15 16 17 20
4 4 6 1 2 4 3 10 8 7 12 27 29 27 25 23 23 28 27 29 29 30 29 26 26 24 24 24 23 23 21 23 25 24 25 25 25 24 23 22 21 20 19 18 16 15 15 17 18
6 6 4 3 3 2 2 7 6 8 25 24 27 26 23 24 23 26 27 27 29 29 30 28 28 27 25 25 23 23 22 21 20 23 24 24 23 23 23 22 21 22 23 22 20 19 20 20 20
13 5 6 7 6 5 3 5 6 6 10 12 32 30 28 24 24 25 27 30 29 30 30 31 31 31 31 30 29 28 27 24 20 19 19 22 23 24 24 24 24 24 25 25 24 22 22 20 22
8 5 8 5 5 5 1 1 7 2 6 10 25 39 33 25 25 25 27 30 31 30 29 31 31 32 32 33 33 31 30 25 18 17 17 20 21 23 23 24 24 24 24 25 25 25 22 20 21
6 6 5 4 3 1 5 6 5 5 7 4 7 23 26 24 20 25 29 29 28 27 26 27 29 33 35 35 33 30 29 24 21 19 19 18 17 17 18 19 20 21 23 24 23 21 22 19 19
7 5 1 1 1 5 1 3 8 6 7 6 7 14 21 24 25 25 26 25 23 23 23 24 24 25 29 33 34 31 25 21 20 19 15 15 15 15 13 15 15 16 16 17 18 18 18 18 19
4 7 5 6 4 3 3 6 6 7 4 15 13 14 22 23 22 21 21 21 21 20 19 17 16 17 20 22 26 29 26 22 18 18 18 14 15 15 15 15 15 13 13 14 14 15 16 17 18
4 6 4 6 3 3 4 6 9 6 3 2 13 21 23 22 21 19 19 17 16 14 14 13 13 13 14 17 18 20 20 19 21 18 17 17 15 17 16 16 20 13 14 13 15 14 12 16 18
6 8 3 2 5 3 4 5 6 6 9 6 9 20 22 20 19 18 17 16 15 14 14 12 11 12 12 13 14 16 18 20 22 16 14 15 14 15 15 16 15 14 14 14 14 15 15 15 15
3 3 1 5 4 6 2 6 7 8 9 12 18 27 24 22 20 18 16 15 15 15 14 13 12 11 12 13 15 16 17 19 24 17 13 12 12 13 13 12 11 12 12 12 11 11 11 11 12
0 5 5 7 7 2 4 6 1 5 4 14 21 26 21 21 20 19 18 17 16 14 13 13 14 14 12 12 13 15 18 21 21 15 14 13 12 12 11 11 9 8 7 7 7 8 9 10 11
Wind_Direction
252 299 324 8 43 57 304 5 148 115 49 74 81 91 103 58 80 164 139 152 167 155 144 142 133 130 128 113 94 97 94 96 98 96 99 87 88 98 104 108 109 105 103 107 104 105 103 100 96
257 272 338 56 82 42 276 325 155 143 128 102 83 83 53 67 113 139 150 165 163 154 148 142 139 135 128 117 104 106 98 95 100 101 95 93 96 96 104 108 108 109 109 108 112 113 107 99 92
245 316 43 90 102 192 208 158 154 113 125 102 95 72 74 121 136 145 157 153 161 155 150 145 141 139 131 120 113 112 100 95 96 98 94 88 88 92 92 97 103 108 110 112 115 120 120 108 97
216 281 75 85 256 263 186 180 148 120 92 111 112 71 90 134 148 158 153 155 158 154 150 144 143 140 138 130 120 112 103 97 93 93 93 91 90 93 92 89 88 97 102 107 113 119 124 122 104
248 314 71 73 276 277 73 174 146 122 112 118 122 120 91 158 166 160 157 159 162 156 151 146 144 142 139 138 128 121 113 103 96 93 90 90 86 92 97 91 91 95 103 106 112 117 119 123 122
78 331 76 221 265 321 124 168 138 126 119 123 108 105 141 186 180 170 165 164 167 159 154 152 148 145 140 140 141 131 123 107 101 95 91 89 85 84 90 88 89 95 101 111 114 118 123 129 123
126 96 200 126 241 294 200 170 155 146 138 127 136 95 148 170 179 175 170 165 165 163 160 158 155 153 149 147 148 143 135 125 114 104 93 87 84 80 80 82 89 92 99 110 115 119 123 124 111
191 114 179 136 191 239 190 154 171 148 144 134 174 161 170 175 176 177 177 172 168 169 172 167 164 162 160 158 155 154 147 141 128 112 99 89 82 78 75 77 85 91 95 106 117 122 126 130 120
174 73 203 199 170 234 189 151 157 151 141 147 156 169 181 165 173 179 179 181 179 177 182 181 176 172 170 168 166 165 165 159 147 132 110 100 92 81 72 78 84 97 108 120 129 133 137 147 165
140 152 208 191 211 213 201 161 141 140 131 106 145 149 156 167 175 184 186 189 188 186 187 190 188 185 182 179 178 176 177 176 168 165 134 119 115 89 69 79 100 109 119 130 139 140 143 169 185
163 200 194 266 301 232 184 161 130 146 215 183 161 153 162 172 180 190 197 203 198 194 193 194 196 196 195 191 189 189 190 191 188 200 195 151 137 106 70 71 105 131 147 161 162 154 147 161 183
153 223 238 289 331 182 175 163 152 170 196 198 193 182 169 179 186 193 203 207 205 204 205 201 202 207 202 200 200 201 203 204 202 210 223 226 157 131 92 65 84 136 174 193 194 199 238 179 179
207 170 209 266 275 217 173 167 173 203 189 177 179 178 180 187 192 197 206 212 216 215 213 214 213 212 214 207 205 207 211 213 211 217 225 240 211 215 228 256 114 159 218 221 224 241 257 253 260
198 201 149 252 235 170 185 163 161 195 183 176 180 186 190 195 199 197 203 212 218 223 224 222 223 224 225 217 210 212 215 218 218 220 225 234 232 233 238 245 253 265 262 240 244 251 255 252 259
177 128 53 220 213 226 156 84 208 182 179 174 186 192 194 200 200 205 206 211 220 221 226 226 227 228 233 238 223 218 217 216 223 226 224 231 237 240 239 241 244 250 261 265 263 265 262 262 260
141 101 152 225 179 244 231 226 228 191 181 183 189 197 197 202 209 211 212 214 217 223 226 231 233 232 235 239 241 221 224 218 219 221 228 231 240 241 245 248 249 250 253 258 261 266 269 268 268
220 188 172 188 184 54 222 235 216 194 189 188 194 201 206 208 212 216 218 219 218 225 228 233 234 234 234 240 243 228 224 223 225 230 230 235 236 244 244 248 251 252 253 255 256 258 264 269 275
181 145 171 172 199 144 252 271 254 195 195 199 201 209 211 214 221 219 217 221 221 226 231 232 236 234 231 238 242 237 227 228 229 232 236 237 236 240 243 246 247 251 253 253 256 261 266 272 278
149 171 195 222 177 142 202 237 238 200 208 211 212 216 220 223 224 223 221 220 222 222 228 230 232 233 229 232 236 239 243 229 231 233 235 239 242 240 243 247 249 251 255 260 263 263 264 268 266
230 206 215 211 112 138 164 249 251 223 233 221 216 220 221 225 222 220 216 217 220 219 223 227 234 238 235 238 244 249 255 258 237 237 237 239 238 243 243 248 254 259 263 266 270 276 278 275 278
232 195 225 213 116 72 95 290 247 237 237 244 235 233 230 224 218 215 212 213 215 216 218 225 232 239 242 246 246 248 250 251 240 238 237 239 242 243 247 247 249 256 262 264 267 267 272 278 280
229 192 208 157 141 193 164 264 258 241 244 218 234 233 231 223 218 214 213 210 209 214 219 225 227 231 236 242 243 244 251 255 263 263 253 246 247 248 248 249 253 251 256 261 262 261 272 266 282
226 149 175 158 136 122 207 111 265 249 249 236 232 231 229 224 223 216 209 206 207 212 219 224 228 233 236 235 238 241 246 254 262 259 250 249 246 247 247 250 253 252 251 251 254 263 262 270 277
137 99 60 62 99 213 205 164 268 205 210 252 210 232 224 215 209 206 200 201 207 215 220 227 231 233 235 240 240 237 239 240 247 247 244 245 242 245 247 251 253 253 252 252 253 256 265 268 273
157 147 127 90 227 210 101 155 247 263 248 232 202 198 192 196 194 193 199 207 216 230 236 240 239 234 232 232 238 239 233 226 230 244 249 243 240 241 246 249 255 257 255 249 250 254 257 265 267
188 161 156 172 185 223 96 225 245 239 275 245 259 208 182 185 194 200 209 217 222 227 228 226 227 227 224 225 228 235 233 224 214 232 236 232 234 235 236 244 246 242 245 246 249 255 260 259 276
183 204 145 98 28 74 215 281 295 231 247 158 174 171 180 184 194 199 203 206 207 205 209 208 205 209 209 210 213 223 225 218 208 220 229 228 236 236 237 241 236 240 248 252 248 263 253 273 277
173 156 129 356 131 242 271 280 235 237 221 172 176 185 187 189 190 192 198 198 196 194 194 196 196 202 202 202 206 215 216 215 213 209 218 225 228 229 230 236 252 250 248 247 256 258 264 269 275
143 193 125 118 149 171 183 258 224 220 198 195 202 195 191 189 192 197 195 192 195 194 195 195 192 196 198 199 200 204 204 207 207 204 206 209 215 220 225 226 227 233 236 238 244 255 266 275 283
61 238 164 185 208 199 159 259 182 227 212 216 205 198 196 197 194 197 197 197 197 198 197 195 194 190 192 189 191 193 197 202 213 195 193 193 197 205 204 201 204 211 222 236 251 265 275 283 292